Zurück zum Katalog

KINEIS-4B

AktivKommunikationSSO
NORAD 63304·PAYLOAD·🇫🇷 France

Gestartet Mar 18, 2025 von Rocket Lab Launch Complex 1

Loading…

Nächste Überflüge (nächste 24 Stunden)

TLE

AktuellSource: Space-Track

Epoche: Sep 14, 2026, 14:01 UTC

1 63304U 25056E   26257.58409097  .00001071  00000-0  17726-3 0  9993
2 63304  97.9219  19.3404 0005806  25.2078 334.9412 14.72284580 80273

Verfolge KINEIS-4B in Echtzeit mit AllMySat

Download on the App Store